SCP
4 5 6 5 4 4 4 4 3 3 3 4 5 5 5 6 5 5 4 4 3 3 3 2 2 2 2 2 2 2 2 2 2 2 2 2 2 2 3 3 3 2 2
5 6 6 5 4 4 4 3 3 3 3 3 4 5 5 5 4 3 3 3 3 2 2 2 2 2 2 2 2 2 2 1 1 1 2 2 1 1 2 3 3 2 2
6 7 6 5 4 4 3 3 3 2 3 3 4 4 4 3 2 2 2 2 2 1 1 1 1 2 2 2 2 1 1 1 1 1 1 1 1 1 2 2 2 2 2
7 9 7 4 3 3 3 3 3 3 3 3 3 3 2 2 2 2 1 1 1 1 1 1 1 1 2 2 2 1 1 1 1 1 1 1 1 1 1 1 1 1 1
8 8 7 4 3 3 3 3 4 4 4 4 3 2 2 3 3 2 2 1 1 1 1 1 1 1 1 1 1 1 1 1 1 1 1 1 1 1 1 1 1 1 1
7 7 5 4 3 3 3 4 4 5 5 4 4 3 4 4 4 3 2 2 1 1 1 1 1 1 1 1 1 1 1 1 1 1 1 1 1 1 1 1 1 1 1
6 5 5 4 4 4 4 4 4 5 5 5 5 5 5 6 5 4 3 2 2 1 1 1 1 1 1 1 1 1 1 1 1 1 1 1 1 1 1 0 0 0 0
6 6 6 6 5 4 4 4 4 5 5 5 5 5 6 7 7 6 4 3 2 1 1 0 0 1 1 1 1 1 1 1 1 1 1 1 1 1 1 0 0 0 0
7 7 7 7 6 5 4 4 4 4 5 5 6 6 7 8 8 7 5 4 2 1 0 0 0 0 1 1 1 1 1 1 1 1 1 1 1 1 1 0 0 0 0
7 8 9 8 6 5 4 3 3 3 4 6 8 8 8 8 8 6 4 3 2 1 0 0 0 0 1 1 1 1 0 0 1 1 1 1 1 1 1 0 0 0 0
7 9 9 7 5 4 3 2 1 1 2 5 10 11 9 7 5 3 2 1 1 0 0 0 0 0 1 1 1 0 0 0 0 1 1 1 1 1 1 1 0 0 0
7 8 7 5 3 2 1 1 0 0 1 4 8 9 6 4 2 1 1 0 0 0 0 0 0 0 0 0 0 0 0 0 0 0 1 1 1 1 1 1 0 0 0
6 5 4 2 1 0 0 0 0 0 0 2 4 4 2 1 1 0 0 0 0 0 0 0 0 0 0 0 0 0 0 0 0 0 1 1 1 1 1 0 0 0 0
4 3 2 1 1 0 0 0 0 0 0 0 0 0 0 0 0 0 0 0 0 0 0 0 0 0 0 0 0 0 0 0 0 1 1 1 1 1 0 0 0 0 0
3 2 1 1 0 0 0 0 0 0 0 0 0 0 0 0 0 0 0 0 0 0 0 0 0 0 0 0 0 0 0 0 1 1 1 0 0 0 0 0 0 0 0
2 1 1 1 0 0 0 0 0 0 0 0 0 0 0 0 0 0 0 0 0 0 0 0 0 0 0 0 0 0 0 0 1 1 0 0 0 0 0 0 0 0 0
2 1 1 1 0 0 0 0 0 0 0 0 0 0 0 0 0 0 0 0 0 0 0 0 0 0 0 0 0 0 0 0 0 0 0 0 0 0 0 0 0 0 0
2 1 1 1 0 0 0 0 0 0 0 0 0 0 0 0 0 0 0 0 0 0 0 0 0 0 0 0 0 0 0 0 0 0 0 0 0 0 0 0 0 0 0
2 2 1 1 0 0 0 0 0 0 0 0 0 0 0 0 0 0 0 0 0 0 0 0 0 0 0 0 0 0 0 0 0 0 0 0 0 0 0 0 0 0 0
2 2 1 1 0 0 0 0 0 0 0 0 0 0 0 0 0 0 0 0 0 0 0 0 0 0 0 0 0 0 0 0 0 0 0 0 0 0 0 0 0 0 0
2 2 1 1 0 0 0 0 0 0 0 0 0 0 0 0 0 0 0 0 0 0 0 0 0 0 0 0 0 0 0 0 0 0 0 0 0 0 0 0 0 0 0
2 2 1 1 0 0 0 0 0 0 0 0 0 0 0 0 0 0 0 0 0 0 0 0 0 0 0 0 0 0 0 0 0 0 0 0 0 0 0 0 0 0 0
1 1 1 1 0 0 0 0 0 0 0 0 0 0 0 0 0 0 0 0 0 0 0 0 0 0 0 0 0 0 0 0 0 0 0 0 0 0 0 0 0 0 0
1 1 1 0 0 0 0 0 0 0 0 0 0 0 0 0 0 0 0 0 0 0 0 0 0 0 0 0 0 0 0 0 0 0 0 0 0 0 0 0 0 0 0
1 1 1 0 0 0 0 0 0 0 0 0 0 0 0 0 0 0 0 0 0 0 0 0 0 0 0 0 0 0 0 0 0 0 0 0 0 0 0 0 0 0 0
1 1 1 0 0 0 0 0 0 0 0 0 0 0 0 0 0 0 0 0 0 0 0 0 0 0 0 0 0 0 0 0 0 0 0 0 0 0 0 0 0 0 0
Wind_Speed
10 9 9 8 8 6 6 5 5 4 3 2 1 2 2 2 2 3 4 4 4 5 4 4 3 3 2 2 3 2 2 1 1 1 1 1 1 1 2 2 3 4 4
10 9 8 8 7 6 6 5 5 4 3 2 1 1 1 2 2 3 4 5 4 4 4 4 4 3 2 2 2 2 2 1 1 1 1 1 0 1 2 3 3 3 3
12 10 9 8 7 7 6 5 5 4 4 3 2 2 1 1 2 3 3 4 4 4 4 4 4 4 3 3 3 3 3 2 2 1 1 1 1 1 2 3 3 3 3
12 11 9 8 8 7 7 6 6 5 5 4 3 2 2 2 3 3 3 3 4 4 4 4 4 4 4 4 4 4 3 3 3 2 1 1 1 1 1 2 3 4 4
14 12 10 9 8 7 7 6 5 5 5 5 4 4 4 3 3 2 2 2 3 4 4 4 4 4 3 4 4 3 3 3 2 2 2 2 1 1 1 2 2 3 3
13 11 10 9 8 7 7 6 6 6 6 6 5 5 4 3 3 3 2 2 2 3 5 5 5 4 3 3 3 3 3 3 3 2 2 1 1 1 0 1 2 2 2
13 12 11 9 8 7 7 6 6 6 5 5 5 5 4 3 4 3 3 3 3 3 4 5 4 4 4 3 3 3 3 3 3 2 2 2 1 1 1 1 2 2 2
12 12 11 9 8 8 7 6 6 6 5 5 5 4 4 3 4 4 4 4 3 3 4 4 4 4 5 5 4 3 3 3 3 3 2 2 1 1 0 1 2 2 2
11 11 10 9 8 8 7 6 6 6 5 5 4 4 5 5 4 4 5 4 4 4 5 4 4 4 5 5 4 3 3 3 3 3 3 2 1 1 0 0 1 3 3
11 10 9 8 8 8 6 6 6 5 4 4 3 4 4 4 5 5 5 4 4 4 4 5 4 4 4 5 4 3 3 4 3 2 3 3 2 1 0 0 1 1 2
11 10 9 8 9 8 6 6 5 5 4 4 4 4 4 4 4 4 4 4 4 4 4 4 4 4 4 4 4 4 4 4 4 4 3 3 2 2 1 1 1 2 3
11 11 10 9 8 7 6 5 5 4 4 4 4 4 4 4 4 5 4 4 4 4 4 4 4 5 5 4 4 5 5 4 5 4 4 4 3 3 2 2 2 2 3
11 10 9 8 7 7 6 5 4 4 4 4 4 5 4 4 4 4 3 3 4 4 4 4 4 5 5 5 5 5 5 5 4 4 5 5 4 4 3 3 3 2 3
10 9 8 8 7 6 5 5 4 4 4 4 4 4 4 4 3 3 3 3 3 4 4 4 5 5 7 8 7 5 5 4 4 4 5 5 5 4 3 3 3 4 4
10 9 9 8 7 6 5 5 4 4 3 4 4 3 3 3 3 3 3 3 4 5 4 5 5 6 6 8 8 6 5 4 4 4 5 6 7 7 5 4 3 3 3
9 9 9 8 7 7 6 6 4 4 3 3 4 3 3 3 2 2 3 3 4 4 5 5 6 7 7 10 11 8 5 3 4 4 3 4 6 7 7 7 5 4 3
9 10 9 8 6 6 6 6 5 4 4 4 3 3 2 2 2 3 3 3 4 4 4 5 5 6 7 10 12 11 5 3 3 4 4 5 6 5 3 3 4 4 4
9 8 8 8 7 6 5 5 5 5 4 3 3 3 3 3 3 3 3 3 3 3 3 3 4 4 6 9 11 11 4 3 3 4 4 5 5 6 4 2 3 4 4
9 8 8 8 7 6 6 5 5 5 4 4 3 3 2 3 2 3 3 2 1 1 2 2 3 3 4 8 9 9 3 2 4 5 6 5 5 7 7 4 4 4 3
8 8 8 8 7 6 5 4 4 4 4 3 3 3 2 3 3 3 2 1 0 0 1 2 2 3 3 6 8 9 3 3 3 3 4 7 6 7 8 4 3 3 2
9 9 9 8 7 6 5 4 4 4 4 3 3 3 2 2 2 2 1 0 1 0 0 1 1 2 2 3 5 7 4 3 2 2 3 3 5 6 6 4 2 1 1
10 9 8 7 6 6 5 4 3 3 3 3 3 3 2 1 2 2 1 1 1 1 2 2 1 2 2 1 2 3 4 4 3 3 3 2 2 3 4 3 3 3 3
9 8 8 7 6 6 5 5 4 3 3 3 2 2 2 1 2 2 2 2 2 2 2 2 2 2 3 2 1 2 3 4 2 2 3 3 4 4 4 5 5 4 3
9 8 8 8 7 6 5 5 5 4 4 3 3 2 2 2 2 1 1 1 1 1 2 1 0 1 2 2 1 1 1 2 1 2 3 5 7 5 5 4 3 3 2
8 7 7 7 8 7 6 6 5 4 3 3 3 3 3 2 2 1 1 2 2 2 2 3 3 2 3 2 3 2 2 2 3 4 3 3 3 4 4 3 3 3 3
8 7 7 7 7 7 6 6 5 4 4 3 3 3 3 3 3 3 2 1 2 2 2 1 1 2 2 2 1 2 2 3 4 3 4 4 4 3 3 2 3 3 2
Wind_Direction
131 125 121 114 108 98 89 81 71 59 49 45 49 81 72 70 67 65 51 38 23 9 0 356 349 348 355 358 352 347 335 319 306 309 300 286 280 104 81 70 58 57 56
139 131 123 119 114 105 92 81 71 56 39 25 25 69 82 75 76 59 49 37 28 13 12 8 348 355 350 358 356 346 327 307 314 299 267 238 221 63 78 82 71 52 49
147 139 132 126 115 105 94 82 69 55 36 23 46 69 82 82 80 67 54 35 22 23 18 6 355 349 352 11 2 356 344 326 311 294 274 270 223 117 79 72 66 56 48
146 141 135 129 119 108 95 82 70 57 39 31 40 56 65 68 60 53 60 46 25 24 23 14 4 4 9 12 6 18 349 337 322 324 323 312 321 212 130 96 77 69 56
146 141 135 125 116 109 100 91 79 64 51 45 44 55 61 61 61 57 62 58 41 30 23 20 11 12 13 18 10 360 353 341 336 335 333 326 308 253 186 151 121 83 56
137 132 129 123 117 110 104 97 84 72 62 56 52 56 62 59 60 57 43 54 48 35 24 23 15 10 9 7 360 352 348 349 342 331 322 317 315 325 14 141 134 113 74
135 136 134 131 123 113 105 95 89 78 67 61 58 54 57 66 59 55 46 38 41 41 29 22 11 5 360 358 360 352 344 350 345 334 330 327 332 312 330 128 132 120 107
138 138 138 133 126 118 109 102 93 83 72 66 58 45 39 58 56 42 39 42 34 32 22 15 12 8 3 2 4 359 358 355 341 339 339 319 332 322 234 140 139 133 120
136 137 132 126 120 114 107 102 95 87 81 78 75 64 53 54 55 49 43 39 25 22 22 16 14 9 8 0 357 13 4 356 357 358 357 337 329 329 290 192 168 157 147
136 132 126 122 115 111 104 96 95 94 85 79 75 80 70 62 57 56 51 39 30 20 17 18 16 18 17 8 3 16 10 12 5 4 10 6 357 359 330 176 200 146 130
138 132 129 123 116 112 107 102 98 94 88 79 72 73 70 66 61 56 48 35 26 19 20 22 20 20 17 10 10 24 22 23 16 12 14 16 20 14 10 49 92 92 104
136 134 130 124 120 117 112 107 103 98 95 98 94 84 75 68 62 56 45 34 25 17 17 19 17 20 19 14 17 25 28 27 23 22 25 22 30 30 25 38 76 91 106
134 134 133 129 128 125 119 113 106 95 90 101 103 92 80 69 61 51 38 31 31 19 16 17 20 19 18 20 23 33 32 33 32 35 36 32 35 34 37 48 58 75 97
142 140 136 134 131 128 126 122 113 106 100 89 90 88 83 79 68 55 40 32 29 32 22 20 25 30 29 20 15 24 34 35 37 47 49 42 39 40 43 63 69 83 93
146 144 143 140 139 142 138 129 117 103 95 102 104 96 93 85 74 61 51 40 30 38 31 30 33 36 40 21 10 6 36 37 38 45 62 65 66 59 52 65 73 90 103
147 146 148 147 151 151 143 132 125 125 120 117 117 112 101 93 88 76 59 52 42 34 34 40 44 39 31 9 10 11 10 31 44 37 53 94 75 72 71 74 78 84 105
153 152 152 152 150 146 142 141 141 138 132 133 128 123 118 104 84 73 67 57 51 47 42 46 55 54 30 12 7 4 2 32 45 40 33 58 64 55 62 85 99 85 84
151 152 150 146 142 140 138 139 144 141 138 138 130 123 114 97 78 72 66 58 53 48 53 50 53 60 38 17 7 356 0 41 58 52 49 61 57 34 18 55 80 79 62
145 143 142 139 137 139 143 147 144 145 147 141 129 124 117 105 92 84 76 63 51 54 78 71 56 56 43 18 8 359 351 58 65 62 48 49 54 29 24 49 71 78 80
134 136 137 136 138 144 148 153 157 151 149 143 138 120 104 100 90 90 93 88 21 360 86 83 67 60 49 20 13 8 12 45 79 91 78 57 46 31 29 33 49 59 47
132 137 139 139 143 147 151 160 157 154 155 143 128 116 111 124 126 120 121 178 275 10 41 117 113 89 65 46 25 19 20 7 20 75 82 57 34 24 14 17 41 56 329
139 140 139 139 144 146 151 150 146 144 137 128 126 124 139 181 130 136 174 222 237 226 226 231 190 153 139 78 45 18 15 3 12 36 60 65 22 0 343 346 340 328 322
143 143 143 144 148 154 158 154 147 142 132 134 136 137 146 134 136 181 201 221 231 242 229 221 196 163 151 154 222 291 334 353 4 10 355 324 305 302 287 271 283 287 269
145 148 152 153 151 154 157 149 147 151 154 155 157 163 185 189 183 228 241 244 312 321 319 321 69 112 119 111 102 271 224 252 259 275 281 276 274 272 277 283 260 243 248
149 154 157 155 152 154 156 158 159 166 167 170 179 199 210 181 171 145 9 11 40 42 9 1 7 27 66 57 41 13 9 11 15 327 289 264 245 235 236 239 230 221 219
151 155 157 160 157 156 160 162 164 171 173 189 204 217 216 201 194 184 169 117 165 159 129 85 30 60 106 155 48 18 355 343 347 326 287 280 272 263 249 239 231 221 217